Previsão horária em Almassora

Hoje, 20 Janeiro, Quarta-feira

Tempo Temperatura Precipitação Vento Pressão Humidade
00:00 +9°C° 0 mm 1 m/s 756 mmHg 57%
01:00 +9°C° 0 mm 1 m/s 756 mmHg 57%
02:00 +9°C° 0 mm 1 m/s 755 mmHg 57%
03:00 +9°C° 0 mm 1 m/s 755 mmHg 57%
04:00 +9°C° 0 mm 1 m/s 754 mmHg 57%
05:00 +9°C° 0 mm 1 m/s 754 mmHg 58%
06:00 +9°C° 0 mm 1 m/s 754 mmHg 58%
07:00 +9°C° 0 mm 1 m/s 754 mmHg 56%
08:00 +10°C° 0 mm 1 m/s 754 mmHg 55%
09:00 +11°C° 0 mm 1 m/s 754 mmHg 54%
10:00 +12°C° 0 mm 2 m/s 753 mmHg 51%
11:00 +13°C° 0 mm 2 m/s 753 mmHg 49%
12:00 +14°C° 0 mm 2 m/s 753 mmHg 46%
13:00 +13°C° 0 mm 4 m/s 752 mmHg 50%
14:00 +14°C° 0 mm 5 m/s 751 mmHg 54%
15:00 +15°C° 0 mm 6 m/s 750 mmHg 58%
16:00 +14°C° 0 mm 6 m/s 750 mmHg 62%
17:00 +13°C° 0 mm 6 m/s 750 mmHg 67%
18:00 +10°C° 0 mm 5 m/s 750 mmHg 71%
19:00 +10°C° 0 mm 5 m/s 750 mmHg 74%
20:00 +9°C° 0 mm 6 m/s 750 mmHg 76%
21:00 +9°C° 0 mm 6 m/s 750 mmHg 78%
22:00 +9°C° 0 mm 6 m/s 750 mmHg 78%
23:00 +9°C° 0 mm 6 m/s 751 mmHg 78%

Amanhã, 21 Janeiro, Quinta-feira

Tempo Temperatura Precipitação Vento Pressão Humidade
00:00 +10°C° 0 mm 7 m/s 751 mmHg 77%
01:00 +9°C° 0 mm 6 m/s 751 mmHg 78%
02:00 +9°C° 0 mm 6 m/s 751 mmHg 79%
03:00 +9°C° 0 mm 6 m/s 751 mmHg 80%
04:00 +8°C° 0 mm 6 m/s 751 mmHg 79%
05:00 +8°C° 0 mm 6 m/s 751 mmHg 77%
06:00 +8°C° 0 mm 5 m/s 751 mmHg 76%
07:00 +9°C° 0 mm 5 m/s 752 mmHg 73%
08:00 +10°C° 0 mm 5 m/s 752 mmHg 70%
09:00 +12°C° 0 mm 5 m/s 752 mmHg 66%
10:00 +14°C° 0 mm 6 m/s 752 mmHg 60%
11:00 +15°C° 0 mm 7 m/s 752 mmHg 55%
12:00 +17°C° 0 mm 8 m/s 752 mmHg 49%
13:00 +17°C° 0 mm 8 m/s 752 mmHg 49%
14:00 +17°C° 0 mm 8 m/s 751 mmHg 50%
15:00 +16°C° 0 mm 8 m/s 751 mmHg 50%
16:00 +15°C° 0 mm 8 m/s 751 mmHg 56%
17:00 +13°C° 0 mm 9 m/s 751 mmHg 61%
18:00 +12°C° 0 mm 9 m/s 751 mmHg 66%
19:00 +12°C° 0 mm 9 m/s 750 mmHg 69%
20:00 +12°C° 0 mm 8 m/s 750 mmHg 72%
21:00 +12°C° 0 mm 7 m/s 750 mmHg 75%
22:00 +11°C° 0 mm 7 m/s 750 mmHg 77%
23:00 +11°C° 0 mm 7 m/s 750 mmHg 79%

Depois de amanhã, 22 Janeiro, Sexta-feira

Tempo Temperatura Precipitação Vento Pressão Humidade
00:00 +11°C° 0 mm 6 m/s 750 mmHg 80%
01:00 +11°C° 0 mm 6 m/s 750 mmHg 82%
02:00 +10°C° 0 mm 6 m/s 749 mmHg 84%
03:00 +10°C° 0 mm 6 m/s 749 mmHg 86%
04:00 +10°C° 0 mm 6 m/s 749 mmHg 86%
05:00 +10°C° 0 mm 6 m/s 748 mmHg 86%
06:00 +10°C° 0 mm 7 m/s 748 mmHg 86%
07:00 +11°C° 0 mm 8 m/s 748 mmHg 80%
08:00 +12°C° 0 mm 9 m/s 747 mmHg 75%
09:00 +13°C° 0 mm 11 m/s 746 mmHg 70%
10:00 +14°C° 0.1 mm 12 m/s 746 mmHg 60%
11:00 +15°C° 0.1 mm 13 m/s 746 mmHg 50%
12:00 +17°C° 0.1 mm 14 m/s 745 mmHg 41%
13:00 +15°C° 0 mm 14 m/s 745 mmHg 39%
14:00 +15°C° 0 mm 14 m/s 745 mmHg 37%
15:00 +15°C° 0 mm 14 m/s 745 mmHg 35%
16:00 +14°C° 0 mm 12 m/s 746 mmHg 38%
17:00 +13°C° 0 mm 10 m/s 747 mmHg 41%
18:00 +11°C° 0 mm 9 m/s 747 mmHg 44%
19:00 +11°C° 0 mm 8 m/s 748 mmHg 45%
20:00 +10°C° 0 mm 6 m/s 749 mmHg 47%
21:00 +9°C° 0 mm 5 m/s 750 mmHg 48%
22:00 +9°C° 0 mm 5 m/s 750 mmHg 49%
23:00 +9°C° 0 mm 5 m/s 751 mmHg 49%

23 Janeiro, Sábado

Tempo Temperatura Precipitação Vento Pressão Humidade
00:00 +8°C° 0 mm 4 m/s 752 mmHg 49%
01:00 +8°C° 0 mm 5 m/s 752 mmHg 50%
02:00 +8°C° 0 mm 6 m/s 752 mmHg 51%
03:00 +8°C° 0 mm 7 m/s 752 mmHg 51%
04:00 +8°C° 0 mm 7 m/s 752 mmHg 53%
05:00 +6°C° 0 mm 7 m/s 752 mmHg 54%
06:00 +6°C° 0 mm 7 m/s 752 mmHg 56%
07:00 +8°C° 0 mm 7 m/s 752 mmHg 54%
08:00 +9°C° 0 mm 7 m/s 753 mmHg 52%
09:00 +9°C° 0 mm 8 m/s 753 mmHg 50%
10:00 +11°C° 0 mm 8 m/s 753 mmHg 46%
11:00 +12°C° 0 mm 8 m/s 752 mmHg 42%
12:00 +15°C° 0 mm 8 m/s 752 mmHg 38%
13:00 +15°C° 0 mm 8 m/s 752 mmHg 40%
14:00 +15°C° 0 mm 9 m/s 751 mmHg 41%
15:00 +15°C° 0 mm 9 m/s 751 mmHg 43%
16:00 +13°C° 0 mm 9 m/s 751 mmHg 48%
17:00 +12°C° 0 mm 9 m/s 750 mmHg 52%
18:00 +11°C° 0 mm 8 m/s 750 mmHg 57%
19:00 +11°C° 0 mm 9 m/s 750 mmHg 59%
20:00 +11°C° 0 mm 10 m/s 749 mmHg 61%
21:00 +11°C° 0 mm 11 m/s 748 mmHg 63%
22:00 +11°C° 0 mm 11 m/s 748 mmHg 64%
23:00 +12°C° 0 mm 12 m/s 748 mmHg 64%

24 Janeiro, Domingo

Tempo Temperatura Precipitação Vento Pressão Humidade
00:00 +12°C° 0 mm 12 m/s 747 mmHg 65%
01:00 +12°C° 0 mm 11 m/s 747 mmHg 65%
02:00 +12°C° 0 mm 10 m/s 747 mmHg 66%
03:00 +12°C° 0 mm 9 m/s 747 mmHg 66%
04:00 +12°C° 0 mm 8 m/s 747 mmHg 60%
05:00 +12°C° 0 mm 7 m/s 747 mmHg 54%
06:00 +13°C° 0 mm 6 m/s 748 mmHg 48%
07:00 +13°C° 0 mm 6 m/s 749 mmHg 49%
08:00 +13°C° 0 mm 6 m/s 750 mmHg 50%
09:00 +13°C° 0 mm 6 m/s 751 mmHg 51%
10:00 +14°C° 0 mm 6 m/s 751 mmHg 49%
11:00 +15°C° 0 mm 6 m/s 751 mmHg 47%
12:00 +16°C° 0 mm 6 m/s 751 mmHg 45%
13:00 +16°C° 0 mm 5 m/s 751 mmHg 46%
14:00 +15°C° 0 mm 5 m/s 751 mmHg 46%
15:00 +15°C° 0 mm 4 m/s 751 mmHg 47%
16:00 +14°C° 0 mm 3 m/s 752 mmHg 52%
17:00 +14°C° 0 mm 2 m/s 752 mmHg 58%
18:00 +13°C° 0 mm 2 m/s 752 mmHg 63%
19:00 +12°C° 0 mm 1 m/s 753 mmHg 64%
20:00 +12°C° 0 mm 1 m/s 753 mmHg 64%
21:00 +12°C° 0 mm 1 m/s 754 mmHg 65%
22:00 +12°C° 0 mm 1 m/s 754 mmHg 64%
23:00 +12°C° 0 mm 1 m/s 754 mmHg 63%

25 Janeiro, Segunda-feira

Tempo Temperatura Precipitação Vento Pressão Humidade
00:00 +11°C° 0 mm 1 m/s 754 mmHg 62%
01:00 +11°C° 0 mm 1 m/s 754 mmHg 61%
02:00 +10°C° 0 mm 2 m/s 754 mmHg 60%
03:00 +10°C° 0 mm 2 m/s 754 mmHg 59%
04:00 +10°C° 0 mm 2 m/s 754 mmHg 61%
05:00 +11°C° 0 mm 1 m/s 754 mmHg 63%
06:00 +10°C° 0 mm 1 m/s 755 mmHg 65%
07:00 +11°C° 0 mm 1 m/s 755 mmHg 61%
08:00 +12°C° 0 mm 2 m/s 755 mmHg 57%
09:00 +13°C° 0 mm 2 m/s 756 mmHg 53%
10:00 +14°C° 0 mm 2 m/s 755 mmHg 52%
11:00 +16°C° 0 mm 3 m/s 755 mmHg 51%
12:00 +17°C° 0 mm 3 m/s 755 mmHg 49%
13:00 +17°C° 0 mm 3 m/s 755 mmHg 51%
14:00 +17°C° 0 mm 3 m/s 754 mmHg 53%
15:00 +18°C° 0 mm 3 m/s 754 mmHg 55%
16:00 +17°C° 0 mm 3 m/s 754 mmHg 59%
17:00 +16°C° 0 mm 2 m/s 754 mmHg 64%
18:00 +15°C° 0 mm 2 m/s 755 mmHg 68%
19:00 +14°C° 0 mm 2 m/s 755 mmHg 70%
20:00 +14°C° 0 mm 2 m/s 756 mmHg 71%
21:00 +14°C° 0 mm 2 m/s 756 mmHg 72%
22:00 +14°C° 0 mm 2 m/s 756 mmHg 72%
23:00 +14°C° 0 mm 2 m/s 757 mmHg 72%
Mostrar mais

Necessitamos do seu Consentimento

A Meteoprog e os seus Fornecedores de Serviços podem armazenar e aceder a dados pessoais como cookies, identificadores do dispositivo ou outras tecnologias semelhantes existentes no seu dispositivo e processar estes dados para personalizar conteúdos e anúncios, assim como funcionalidades nas redes sociais e análise de tráfego.

  • Armazenar e/ou aceder a informações no seu dispositivo

    Os cookies, identificadores do dispositivo ou outras informações podem ser armazenados ou acedidos no seu dispositivo, para os fins acima indicados.

  • Anúncios e conteúdos personalizados, medição de anúncios e conteúdos, dados sobre o público-alvo e desenvolvimento de produtos

    Os anúncios e os conteúdos podem ser personalizados com base num perfil. Podem ser adicionados dados adicionais para uma maior personalização dos anúncios e dos conteúdos. A eficácia dos anúncios e dos conteúdos pode ser medida. Podem ser obtidas informações sobre o público que visualizou os anúncios e os conteúdos. Estes dados podem ser usados para desenvolver ou melhorar sistemas, softwares ou a experiência do utilizador.

Ao clicar em "Eu concordo”, permitirá o uso de cookies, identificadores do dispositivo e web beacons mencionados ou outras tecnologias semelhantes. As configurações do navegador do seu dispositivo podem ser alteradas.

Para certos fins, podem ser invocados interesses legítimos ao invés de consentimento. Pode ler mais informação sobre este assunto na nossa Política de Privacidade e Cookies.